Newton, KS

6:22 PM CST on November 20, 2019 (GMT -0600)
Newton City County

Weather History for KEWK - October, 2019

Change the Weather History Date:

Monday, October 21, 2019

  Actual Average Record
Temperature  
Mean Temperature 52 °F -  
Max Temperature 60 °F 63 °F 84 °F (2012)
Min Temperature 44 °F 43 °F 35 °F (1997)
Degree Days  
Heating Degree Days 12    
Growing Degree Days 2 (Base 50)    
Moisture  
Dew Point 31 °F    
Average Humidity 47    
Maximum Humidity 65    
Minimum Humidity 32    
Precipitation  
Precipitation 0.00 in - - ()
Sea Level Pressure  
Sea Level Pressure 29.75 in    
Wind  
Wind Speed 20 mph (WNW)    
Max Wind Speed 31 mph    
Max Gust Speed 40 mph    
Visibility 10 miles    
Events      
Averages and records for this station are not official NWS values.
T = Trace of Precipitation, MM = Missing Value Source: NWS Daily Summary

Daily Weather History Graph

Daily Weather History Graph

Search for Another Location

Airport or City:

Astronomy

Oct. 21, 2019 Rise Set
Actual Time 7:43 AM CDT 6:43 PM CDT
Civil Twilight 7:16 AM CDT 7:10 PM CDT
Nautical Twilight 6:45 AM CDT 7:40 PM CDT
Astronomical Twilight 6:15 AM CDT 8:11 PM CDT
Moon No Moon Rise 2:59 PM CDT
Length of Visible Light 11h 53m
Length of Day
11h 00m
Waning Gibbous, 48% of the Moon is Illuminated
Oct 21
Waning Gibbous
Oct 27
New
Nov 4
First Quarter
Nov 12
Full
Nov 19
Last Quarter

Hourly Weather History & Observations

Time (CDT) Temp. Windchill Dew Point Humidity Pressure Visibility Wind Dir Wind Speed Gust Speed Precip Events Conditions
1:56 AM 48.9 °F - 33.1 °F 54% 29.62 in 10.0 mi WNW 12.7 mph - N/A   Mostly Cloudy
2:56 AM 48.9 °F - 33.1 °F 54% 29.62 in 10.0 mi WNW 23.0 mph 31.1 mph N/A   Clear
3:56 AM 46.0 °F 39.6 °F 34.0 °F 63% 29.62 in 10.0 mi West 15.0 mph - N/A   Partly Cloudy
4:56 AM 48.0 °F - 34.0 °F 58% 29.62 in 10.0 mi WNW 26.5 mph 36.8 mph N/A   Mostly Cloudy
5:56 AM 46.0 °F 38.0 °F 33.1 °F 61% 29.65 in 10.0 mi WNW 21.9 mph 32.2 mph N/A   Clear
6:56 AM 46.0 °F 38.3 °F 33.1 °F 61% 29.66 in 10.0 mi WNW 20.7 mph 31.1 mph N/A   Clear
7:56 AM 45.0 °F 37.9 °F 34.0 °F 65% 29.65 in 10.0 mi West 16.1 mph - N/A   Clear
8:56 AM 48.0 °F - 33.1 °F 56% 29.66 in 10.0 mi West 19.6 mph 25.3 mph N/A   Clear
9:56 AM 52.0 °F - 33.1 °F 49% 29.68 in 10.0 mi WNW 24.2 mph 35.7 mph N/A   Clear
10:56 AM 55.0 °F - 33.1 °F 43% 29.69 in 10.0 mi WNW 27.6 mph 34.5 mph N/A   Clear
11:56 AM 57.9 °F - 30.9 °F 36% 29.69 in 10.0 mi WNW 27.6 mph 40.3 mph N/A   Clear
12:56 PM 60.1 °F - 30.0 °F 32% 29.71 in 10.0 mi West 31.1 mph 39.1 mph N/A   Clear
1:56 PM 60.1 °F - 30.0 °F 32% 29.71 in 10.0 mi WNW 28.8 mph 38.0 mph N/A   Scattered Clouds
2:56 PM 60.1 °F - 32.0 °F 35% 29.73 in 10.0 mi WNW 27.6 mph 38.0 mph N/A   Partly Cloudy
3:56 PM 60.1 °F - 30.9 °F 33% 29.75 in 10.0 mi WNW 26.5 mph 36.8 mph N/A   Scattered Clouds
4:56 PM 59.0 °F - 30.9 °F 35% 29.79 in 10.0 mi NW 23.0 mph 29.9 mph N/A   Overcast
5:56 PM 57.0 °F - 28.9 °F 34% 29.81 in 10.0 mi NW 20.7 mph 28.8 mph N/A   Scattered Clouds
6:56 PM 54.0 °F - 28.9 °F 38% 29.86 in 10.0 mi NW 18.4 mph 27.6 mph N/A   Clear
7:56 PM 52.0 °F - 28.9 °F 41% 29.90 in 10.0 mi NW 15.0 mph - N/A   Partly Cloudy
8:56 PM 51.1 °F - 30.0 °F 44% 29.94 in 10.0 mi WNW 13.8 mph 21.9 mph N/A   Clear
9:56 PM 48.0 °F - 30.0 °F 50% 29.97 in 10.0 mi NW 9.2 mph - N/A   Clear
10:56 PM 45.0 °F 40.6 °F 28.9 °F 53% 30.00 in 10.0 mi WNW 8.1 mph - N/A   Clear
11:56 PM 44.1 °F 39.5 °F 28.0 °F 53% 30.00 in 10.0 mi West 8.1 mph - N/A   Clear